Back to catalog

ONEWEB-0198

AliveCommunicationsPO
NORAD 48216·PAYLOAD·🇬🇧 United Kingdom

Launched Apr 25, 2021 from Vostochny Cosmodrome

Loading…

Next Passes (next 24 hours)

TLE

FreshSource: CelesTrak SupGP

Epoch: Sep 14, 2026, 16:28 UTC

1 48216C 21031G   26257.68660139 -.00001802  00000+0 -48680-2 0  2576
2 48216  87.8878 271.8546 0001549  85.5338  14.5011 13.14500852    15

Track ONEWEB-0198 in real time with AllMySat

Download on the App Store